Temp
9 9 9 9 8 8 8 6 6 4 4 4 5 5 5 5 5 6 6 6 6 5 5 5 5 5 5 5 7 7 7 8 10 11 13 13 13 14 15 16 17 16 17 17 16
9 9 9 9 8 8 8 7 5 5 3 4 5 5 4 5 5 6 6 6 4 4 5 4 5 5 4 5 6 7 7 9 11 12 13 13 13 14 14 16 16 16 16 16 15
9 9 9 8 8 7 7 7 5 4 3 4 5 5 4 5 5 6 6 5 4 4 4 4 4 4 4 5 6 7 6 9 10 11 11 12 12 13 13 13 17 16 15 15 15
8 9 9 8 8 7 7 7 5 5 3 4 5 4 4 4 4 6 6 4 4 4 4 4 4 4 4 5 6 6 8 8 9 10 11 12 10 13 11 14 15 16 18 15 15
8 8 8 9 8 7 7 7 6 6 3 4 4 4 4 4 5 5 5 5 4 4 4 3 3 4 4 5 6 6 8 8 8 9 10 11 10 9 11 14 15 15 16 15 15
8 7 8 8 8 8 6 7 5 5 3 4 4 3 3 2 6 5 5 5 5 4 4 3 3 4 4 6 7 6 7 7 8 10 10 10 10 9 11 12 15 16 15 16 15
6 8 7 8 8 7 6 6 6 5 3 4 4 3 3 4 5 5 5 5 5 4 3 3 3 3 4 6 6 6 4 7 8 9 10 9 9 9 10 11 14 17 13 15 16
6 7 7 8 8 7 6 5 5 5 4 4 4 3 3 5 5 5 5 5 5 4 3 3 3 3 4 4 4 5 5 7 8 9 6 9 10 9 8 10 13 15 16 13 13
5 6 7 7 7 6 6 5 5 5 4 4 3 3 3 5 5 5 5 5 5 5 4 4 4 4 4 3 3 6 6 7 7 8 7 6 8 9 8 9 9 10 13 16 13
4 6 6 6 6 6 5 4 4 4 4 3 3 2 4 5 5 5 5 5 5 5 4 4 4 4 4 3 6 6 8 8 9 8 8 6 5 5 8 8 9 10 10 12 15
3 5 5 5 6 5 4 4 4 4 3 4 4 3 5 5 5 6 5 5 5 5 4 3 4 3 5 4 6 7 8 8 8 8 8 7 5 7 9 9 9 9 10 11 13
3 4 5 5 5 5 4 3 3 3 3 5 4 4 5 5 5 5 5 5 5 4 4 4 5 5 4 4 7 7 8 8 7 8 7 7 6 7 10 9 8 9 10 11 12
2 3 5 4 5 4 4 3 2 3 3 4 4 4 5 4 4 5 5 5 4 4 4 4 6 6 7 7 7 7 8 7 7 8 8 8 6 8 9 9 9 10 10 11 12
1 3 3 4 4 4 3 2 2 3 2 4 4 4 4 4 4 5 5 4 4 4 4 5 6 7 7 8 7 8 8 9 8 9 9 9 9 8 9 10 10 10 11 12 12
1 2 2 3 3 3 3 2 2 3 4 4 4 4 5 5 5 5 5 5 4 4 5 5 7 7 5 6 7 8 8 9 9 9 9 8 9 8 9 9 10 11 11 12 13
1 2 2 2 3 3 2 2 2 3 4 4 4 3 5 5 5 5 5 5 5 5 5 5 7 7 7 7 7 8 8 8 8 8 9 9 9 11 10 11 10 10 11 13 13
1 1 2 2 2 2 2 1 3 3 4 4 3 4 5 5 4 4 4 4 4 4 6 6 7 7 7 6 7 8 7 8 8 7 8 8 9 11 10 9 10 12 12 12 12
1 1 2 2 2 2 2 2 3 4 4 5 4 4 4 6 4 4 4 4 4 5 5 2 4 6 6 7 7 7 7 8 8 8 8 9 9 10 9 8 9 11 12 12 11
1 1 2 2 2 2 2 3 4 3 4 4 4 5 6 5 5 4 4 4 5 5 5 5 6 7 7 7 7 8 7 8 7 7 9 8 9 11 10 9 9 8 9 9 10
1 1 2 3 2 2 2 4 3 4 5 5 5 5 4 4 5 5 5 5 6 6 5 7 6 5 7 8 8 8 8 8 6 8 8 9 8 9 9 9 9 9 8 10 11
1 1 1 2 2 1 2 3 3 5 6 6 5 4 4 4 5 5 5 6 7 6 5 6 6 7 7 7 6 7 8 7 7 6 9 9 10 8 8 9 8 7 8 11 12
0 1 1 1 2 2 3 2 5 5 6 6 6 5 5 5 5 5 5 5 7 7 7 6 5 7 6 6 6 7 7 6 7 8 3 6 9 6 5 7 8 8 9 10 11
0 1 2 1 3 3 2 3 4 5 6 7 7 7 6 5 5 6 6 7 7 7 7 7 4 5 6 6 7 7 6 5 5 5 4 7 8 7 6 7 8 8 9 10 11
1 1 2 2 2 3 3 2 4 5 6 7 7 7 6 6 5 5 6 6 7 7 7 6 3 4 4 6 5 6 7 6 5 5 6 7 8 8 8 8 8 9 10 10 10
1 1 2 2 2 2 3 3 4 6 6 7 7 7 6 6 6 5 6 7 7 7 6 5 3 0 4 5 6 7 7 6 4 6 6 7 8 8 8 8 8 9 9 9 9
2 2 2 3 2 2 2 4 4 5 5 7 6 6 7 6 7 5 5 6 7 6 5 4 2 4 5 4 5 7 6 6 6 6 7 7 8 7 8 9 9 9 9 9 9
2 3 5 2 2 2 2 4 6 5 5 6 6 5 6 6 7 7 6 5 6 6 4 4 3 2 3 3 5 6 7 6 6 6 6 7 7 7 8 8 8 8 8 7 7
Height
1522 1519 1516 1516 1513 1512 1510 1510 1509 1505 1502 1502 1500 1499 1496 1494 1493 1491 1488 1489 1489 1491 1491 1491 1492 1493 1494 1494 1495 1494 1494 1487 1483 1481 1476 1479 1485 1484 1485 1484 1481 1480 1480 1476 1475
1518 1516 1513 1511 1510 1508 1507 1505 1504 1502 1499 1499 1499 1497 1496 1492 1490 1486 1486 1486 1488 1489 1488 1488 1487 1489 1490 1488 1490 1491 1486 1481 1479 1479 1476 1478 1480 1479 1484 1479 1477 1476 1475 1475 1480
1513 1511 1509 1507 1504 1503 1503 1501 1501 1500 1495 1496 1496 1495 1493 1491 1487 1484 1484 1485 1486 1485 1486 1486 1485 1485 1485 1486 1485 1484 1482 1480 1479 1477 1478 1476 1475 1477 1480 1478 1472 1472 1473 1477 1478
1508 1507 1502 1502 1502 1498 1499 1497 1496 1494 1492 1494 1494 1493 1491 1490 1491 1482 1482 1483 1485 1483 1483 1483 1483 1481 1480 1479 1480 1482 1479 1479 1477 1477 1476 1473 1477 1475 1477 1473 1471 1470 1467 1471 1476
1504 1502 1501 1496 1496 1496 1495 1492 1490 1489 1490 1490 1492 1492 1490 1489 1483 1481 1481 1481 1481 1480 1478 1478 1478 1477 1476 1475 1477 1476 1474 1474 1474 1474 1474 1473 1473 1478 1473 1472 1470 1470 1469 1471 1476
1498 1497 1493 1493 1490 1490 1490 1487 1486 1485 1487 1488 1489 1489 1489 1487 1480 1479 1479 1478 1476 1475 1473 1472 1472 1474 1474 1472 1472 1469 1471 1471 1470 1470 1471 1471 1468 1474 1466 1468 1467 1466 1465 1468 1474
1491 1491 1488 1486 1487 1485 1485 1484 1483 1482 1485 1486 1487 1487 1486 1482 1478 1476 1476 1474 1473 1471 1466 1465 1468 1472 1472 1470 1470 1469 1473 1467 1467 1466 1467 1470 1470 1469 1470 1466 1462 1462 1463 1465 1470
1487 1484 1484 1481 1480 1479 1479 1480 1480 1480 1481 1483 1486 1485 1482 1478 1475 1474 1473 1472 1471 1468 1464 1463 1468 1471 1472 1471 1469 1467 1467 1462 1460 1463 1469 1467 1462 1470 1473 1462 1458 1457 1456 1458 1460
1483 1480 1477 1476 1475 1475 1475 1477 1477 1477 1478 1481 1484 1483 1478 1475 1473 1471 1470 1470 1469 1468 1467 1467 1470 1471 1471 1474 1475 1463 1460 1458 1461 1462 1466 1465 1465 1472 1465 1460 1458 1457 1456 1460 1464
1478 1475 1473 1472 1471 1471 1471 1474 1474 1475 1477 1479 1481 1485 1476 1473 1471 1469 1469 1469 1468 1467 1469 1468 1469 1470 1470 1475 1457 1454 1455 1455 1455 1461 1465 1470 1475 1477 1458 1457 1455 1455 1457 1459 1463
1475 1471 1469 1468 1467 1466 1469 1472 1476 1476 1474 1473 1474 1473 1472 1471 1469 1467 1467 1467 1467 1467 1467 1468 1467 1465 1460 1463 1458 1452 1451 1455 1458 1460 1464 1469 1474 1467 1457 1454 1454 1455 1456 1457 1461
1472 1469 1466 1464 1462 1463 1466 1469 1472 1475 1470 1467 1471 1472 1470 1470 1467 1465 1465 1467 1467 1467 1467 1468 1460 1458 1459 1457 1453 1451 1450 1456 1462 1460 1462 1466 1472 1457 1449 1453 1456 1455 1456 1461 1463
1469 1466 1463 1462 1459 1461 1462 1466 1470 1472 1470 1465 1466 1469 1469 1469 1465 1464 1465 1466 1467 1465 1467 1466 1458 1454 1450 1449 1450 1452 1449 1455 1456 1456 1455 1463 1467 1458 1449 1453 1453 1456 1459 1464 1469
1464 1463 1462 1461 1462 1460 1460 1463 1466 1470 1472 1464 1466 1467 1467 1465 1465 1463 1465 1468 1465 1466 1465 1463 1457 1454 1453 1449 1451 1449 1451 1449 1452 1451 1461 1460 1462 1460 1457 1453 1453 1454 1458 1461 1463
1460 1458 1458 1459 1459 1459 1460 1461 1465 1470 1467 1464 1465 1466 1464 1465 1465 1465 1466 1465 1465 1465 1466 1462 1456 1455 1455 1455 1451 1448 1448 1450 1454 1453 1455 1468 1467 1465 1460 1463 1454 1455 1457 1461 1468
1454 1453 1454 1456 1457 1457 1458 1461 1467 1471 1463 1461 1462 1464 1463 1463 1463 1464 1465 1464 1463 1463 1463 1461 1456 1455 1454 1454 1453 1451 1450 1453 1454 1456 1463 1467 1467 1454 1457 1450 1455 1456 1459 1463 1468
1449 1448 1450 1452 1453 1455 1456 1462 1467 1463 1460 1460 1462 1462 1459 1460 1463 1464 1464 1465 1467 1468 1462 1459 1458 1456 1455 1458 1453 1453 1456 1459 1464 1469 1468 1467 1466 1459 1455 1457 1456 1458 1466 1468 1473
1444 1442 1442 1444 1448 1451 1455 1462 1462 1455 1453 1454 1457 1460 1460 1458 1462 1463 1465 1467 1463 1464 1464 1474 1472 1461 1456 1455 1455 1456 1455 1453 1462 1466 1468 1468 1470 1462 1461 1458 1451 1454 1461 1466 1472
1437 1437 1435 1435 1443 1447 1454 1457 1453 1451 1448 1451 1456 1457 1455 1458 1460 1464 1467 1466 1462 1462 1463 1466 1459 1458 1458 1456 1456 1452 1458 1455 1460 1467 1466 1480 1472 1466 1462 1457 1461 1463 1466 1469 1469
1434 1434 1431 1432 1439 1444 1452 1450 1453 1447 1445 1448 1450 1453 1458 1459 1458 1462 1464 1460 1459 1459 1459 1460 1464 1464 1459 1457 1455 1453 1455 1458 1463 1468 1475 1476 1478 1482 1477 1474 1472 1470 1469 1468 1469
1433 1433 1429 1430 1437 1443 1446 1450 1451 1445 1444 1446 1448 1452 1454 1459 1458 1462 1465 1460 1458 1459 1460 1458 1459 1463 1460 1463 1465 1459 1456 1460 1464 1476 1467 1473 1478 1480 1479 1476 1476 1474 1471 1471 1472
1432 1434 1430 1433 1438 1441 1444 1448 1448 1443 1443 1444 1444 1446 1452 1455 1459 1461 1462 1463 1458 1458 1459 1460 1466 1464 1466 1463 1462 1462 1463 1464 1465 1470 1488 1481 1479 1479 1479 1478 1477 1476 1476 1476 1477
1430 1431 1431 1433 1435 1439 1444 1447 1448 1444 1443 1443 1443 1441 1447 1452 1458 1457 1460 1459 1458 1458 1460 1460 1473 1477 1473 1468 1464 1465 1466 1471 1473 1477 1490 1483 1485 1480 1479 1478 1479 1479 1479 1479 1479
1431 1431 1430 1434 1436 1438 1443 1449 1448 1443 1442 1443 1443 1441 1447 1452 1455 1459 1459 1459 1458 1460 1461 1461 1476 1476 1485 1474 1475 1473 1469 1471 1478 1487 1487 1484 1481 1481 1481 1480 1480 1481 1482 1483 1484
1426 1425 1426 1431 1436 1440 1444 1446 1446 1443 1443 1444 1443 1443 1446 1454 1457 1461 1461 1461 1461 1460 1460 1462 1480 1488 1482 1479 1476 1474 1473 1477 1486 1480 1483 1484 1482 1481 1481 1482 1482 1484 1485 1486 1486
1420 1422 1427 1430 1436 1441 1447 1443 1444 1444 1445 1444 1445 1446 1445 1450 1453 1460 1460 1462 1460 1462 1464 1467 1485 1479 1479 1479 1479 1475 1479 1479 1478 1481 1482 1482 1481 1481 1481 1482 1484 1484 1485 1485 1486
1417 1419 1424 1433 1438 1442 1446 1442 1439 1441 1446 1445 1445 1447 1449 1452 1451 1453 1457 1460 1460 1462 1467 1470 1479 1487 1491 1486 1481 1483 1477 1479 1481 1482 1481 1483 1483 1480 1480 1482 1484 1485 1487 1488 1488
Wind_Speed
23 23 25 24 24 21 19 18 20 22 17 15 16 17 12 16 18 20 20 11 10 7 10 13 17 16 12 10 20 13 7 12 19 21 17 14 15 37 18 13 16 20 12 17 34
25 25 23 23 25 20 18 20 18 19 20 11 14 16 15 16 20 21 4 1 3 6 11 14 17 11 10 9 12 12 10 18 12 17 11 11 15 18 12 21 14 19 8 20 35
22 25 24 24 24 20 17 19 16 21 19 11 12 16 16 15 17 2 6 5 6 11 10 17 13 9 9 13 14 11 14 14 18 27 16 10 9 17 16 15 18 24 27 34 29
21 18 26 24 24 22 16 16 16 20 17 8 12 17 15 13 4 2 7 5 8 17 18 19 7 5 5 11 16 12 19 22 19 22 16 13 6 10 22 31 18 26 39 36 28
27 25 23 28 19 23 16 14 15 19 14 6 12 16 13 8 9 3 4 9 11 15 20 17 14 9 7 5 12 15 16 18 28 27 16 16 11 6 17 35 34 23 36 40 32
25 23 22 27 19 20 16 13 14 17 10 8 11 14 13 6 4 4 9 14 13 18 20 20 13 10 7 10 9 3 13 22 18 21 17 9 16 11 9 21 32 24 37 44 35
21 26 23 22 27 21 16 12 14 16 9 11 9 10 14 18 4 7 10 10 12 17 22 23 17 13 3 5 7 13 10 17 18 13 6 6 10 9 14 17 29 31 31 40 30
21 19 19 20 26 18 15 12 13 11 7 7 7 10 10 7 7 8 7 6 11 11 4 2 13 7 4 8 11 6 11 6 10 8 4 8 12 6 6 3 18 22 30 33 40
22 20 15 12 22 16 15 10 10 7 7 6 8 8 10 5 6 3 2 4 8 7 4 5 6 3 3 3 5 7 2 7 4 13 7 3 3 9 4 8 8 5 15 30 31
24 21 17 11 21 18 10 6 6 8 7 8 9 6 10 5 6 3 1 3 5 4 1 2 3 2 3 4 4 7 5 3 5 7 9 8 7 21 6 9 9 11 8 23 34
25 21 19 11 20 16 8 2 0 2 11 9 6 6 6 8 4 0 6 2 3 2 1 0 3 5 5 13 11 4 10 9 7 7 7 11 6 17 7 6 8 12 12 12 19
25 21 20 15 17 15 6 5 4 4 5 13 14 13 9 5 2 2 4 1 2 2 2 2 3 5 10 11 9 5 9 8 10 5 8 5 8 17 5 1 2 6 12 11 16
21 19 19 12 15 11 5 4 7 4 3 3 14 9 6 4 2 1 7 3 1 2 2 1 5 7 6 2 6 3 6 6 7 6 7 3 3 6 2 3 3 2 4 6 12
19 14 13 11 7 8 4 6 7 1 2 3 4 5 5 4 1 1 4 2 2 1 1 2 5 1 4 3 3 4 1 7 14 7 3 2 5 4 6 5 1 5 5 2 6
17 12 5 8 7 7 8 11 7 4 1 3 3 5 4 2 2 2 3 1 1 1 2 1 2 2 5 2 6 2 1 9 9 3 6 2 1 1 2 7 3 5 9 6 4
18 11 9 4 12 8 11 13 9 1 4 3 4 4 4 1 3 1 2 1 2 2 3 2 3 2 1 4 5 1 5 7 3 3 3 2 2 3 1 3 3 6 11 8 9
17 11 10 12 11 14 15 16 2 3 1 5 4 4 2 3 2 3 1 2 1 3 1 2 2 4 2 3 4 7 3 3 2 3 2 3 3 3 8 5 1 11 13 11 15
15 14 13 16 15 20 20 2 3 1 4 3 4 4 4 4 2 2 2 1 2 1 1 2 4 4 4 2 2 3 2 2 4 3 4 2 4 5 6 8 9 9 1 5 12
12 9 12 15 23 28 19 2 3 5 5 7 3 3 3 2 3 3 2 2 4 6 1 2 3 1 2 3 1 3 3 1 5 3 4 2 1 4 10 15 15 16 17 18 18
8 8 9 20 30 29 3 3 3 3 3 3 4 3 5 4 3 3 1 3 1 4 2 1 2 2 2 4 2 1 2 2 3 3 4 2 2 2 6 6 5 8 13 17 19
5 4 5 28 30 12 2 3 4 7 4 4 3 4 3 4 2 3 3 3 2 2 2 1 3 2 2 4 3 3 2 4 4 3 3 3 1 2 3 0 4 5 16 20 21
3 2 5 28 4 3 3 5 4 4 5 2 2 3 4 4 3 2 2 3 2 4 2 1 3 4 2 4 2 0 2 3 3 2 4 2 2 4 4 4 8 10 14 16 16
3 6 5 26 4 3 3 1 3 2 3 2 1 1 3 4 4 2 2 2 0 2 2 2 3 2 6 4 3 5 4 4 4 3 2 3 2 3 3 5 5 11 11 12 12
5 3 4 13 1 4 4 2 3 5 2 2 2 3 4 3 5 3 2 4 3 3 6 4 3 3 4 1 1 2 3 4 4 3 3 1 3 1 1 4 5 8 10 11 9
11 4 4 4 4 5 6 2 4 3 1 2 3 3 5 4 3 3 2 2 4 3 4 4 4 4 4 3 2 0 1 3 3 2 4 1 4 4 4 3 4 7 7 6 5
10 5 6 7 15 7 5 3 5 2 2 1 5 4 2 5 5 6 5 2 2 4 3 2 1 1 5 5 6 3 4 3 3 3 2 1 2 4 5 2 3 5 4 5 6
11 14 13 7 5 4 4 4 6 6 3 2 7 5 4 2 5 10 8 9 5 5 2 3 4 3 2 4 4 3 1 2 2 1 4 2 3 3 1 1 2 4 5 6 6
Wind_Direction
320 323 329 314 312 320 325 315 310 312 312 288 300 309 297 295 305 307 303 294 294 303 290 276 275 271 260 252 229 230 233 235 229 232 225 206 211 241 252 255 207 194 203 202 191
315 317 323 322 310 313 322 315 314 310 312 287 297 298 299 296 309 310 315 355 284 285 295 319 304 275 245 244 233 217 229 234 236 240 238 219 209 232 265 256 227 204 201 184 183
322 304 310 316 309 305 313 314 310 305 311 283 298 291 294 304 316 178 334 322 275 275 299 323 306 238 229 235 229 228 236 246 247 257 245 241 234 234 235 270 235 205 193 172 167
314 306 276 311 303 298 302 307 305 305 302 267 300 289 300 302 300 301 328 324 299 289 303 304 301 229 222 221 224 239 236 243 254 253 256 227 283 238 212 239 265 211 206 180 169
294 295 307 286 307 291 295 302 303 305 298 276 288 286 296 288 271 252 313 305 295 295 285 281 277 253 230 237 224 225 230 246 244 259 275 245 249 298 256 238 258 220 193 183 172
284 299 292 272 299 295 289 298 300 303 295 275 278 279 284 268 259 283 313 309 314 297 285 262 238 254 260 233 240 218 239 245 263 243 247 236 261 337 278 240 244 223 194 189 170
304 290 306 278 276 286 287 291 300 308 271 273 255 266 279 266 260 294 308 320 328 307 280 262 226 251 277 281 284 227 287 248 236 228 236 161 275 257 289 270 233 222 191 186 186
324 319 305 304 265 271 280 282 296 296 266 262 241 257 259 263 286 294 296 333 335 348 29 165 184 236 312 312 333 210 232 193 196 180 64 156 237 290 304 245 206 221 195 177 185
334 323 304 302 261 267 280 288 302 283 259 225 242 249 266 281 308 296 293 341 314 346 84 134 168 201 227 321 288 196 190 207 147 188 127 130 317 297 301 57 103 101 194 190 183
336 329 320 320 259 261 272 281 294 271 240 219 243 249 262 266 307 318 329 316 277 335 144 163 122 205 174 177 249 162 139 151 155 176 191 166 261 282 343 39 61 69 101 179 194
334 331 329 317 253 254 262 304 36 263 216 198 204 230 285 296 288 68 341 323 260 235 151 277 221 226 257 230 244 168 142 129 93 96 140 206 302 287 323 30 49 52 80 124 177
329 332 331 319 239 249 249 161 176 293 293 257 241 245 271 279 278 39 336 358 117 235 184 218 265 220 249 248 230 177 135 124 102 122 111 89 260 274 335 316 348 38 63 100 155
323 331 332 319 234 253 230 203 224 294 259 228 217 237 234 227 198 47 15 324 132 62 353 128 305 303 22 117 166 138 148 165 127 155 98 194 278 281 57 282 299 6 37 105 141
318 318 339 296 246 253 168 174 195 153 37 204 199 217 199 200 43 66 8 315 7 150 57 284 275 52 36 66 356 149 339 158 146 131 106 26 314 50 294 301 308 308 320 0 116
301 307 310 290 252 167 148 147 146 203 305 132 165 169 195 168 128 40 322 292 206 275 173 316 5 127 41 333 326 54 26 149 157 111 117 49 279 334 200 224 272 277 279 297 258
293 291 282 261 235 174 157 137 134 139 247 156 138 216 175 140 89 334 270 296 295 305 127 285 273 348 46 10 348 274 82 60 63 42 74 224 63 332 141 25 145 248 270 264 291
294 272 290 236 238 191 152 134 116 205 74 165 189 198 195 120 146 197 114 15 95 98 13 316 19 330 87 50 347 83 50 114 74 32 72 23 31 299 326 348 277 173 191 168 257
284 294 273 250 222 179 158 113 203 215 192 148 140 131 142 154 83 125 56 358 235 99 109 93 8 342 341 64 103 126 238 112 132 145 95 33 350 350 343 22 69 105 123 169 203
298 294 277 233 189 173 143 175 223 209 171 146 139 134 117 204 149 114 189 256 205 192 122 123 23 294 351 301 336 308 44 239 109 67 92 330 360 28 8 40 44 76 89 93 101
305 296 292 203 178 167 130 161 246 237 149 143 133 195 142 192 121 135 189 237 311 190 154 238 93 353 324 332 16 295 308 83 9 91 84 15 49 84 13 38 16 64 79 83 86
308 331 279 168 162 148 162 143 273 254 197 150 140 134 122 138 108 116 172 271 211 153 191 352 50 48 358 25 358 345 21 48 107 58 128 132 62 172 269 245 120 88 93 93 88
177 231 250 166 129 150 139 148 262 277 195 293 128 112 123 161 108 140 204 245 353 156 77 51 103 52 33 309 293 30 77 60 92 309 52 77 355 352 239 187 137 103 93 88 85
201 220 224 176 159 136 67 88 285 269 182 225 134 137 123 152 104 96 188 331 310 113 150 188 12 67 353 359 3 32 22 87 64 60 359 98 249 25 103 131 114 114 101 89 82
199 166 163 183 95 130 119 180 255 222 232 205 123 93 106 82 24 122 90 2 23 74 71 105 88 136 151 148 322 30 43 36 85 80 173 97 125 38 79 118 121 111 109 103 92
190 195 156 161 139 107 134 230 171 181 268 210 41 111 133 105 77 97 63 33 25 18 37 67 81 64 50 44 130 46 132 118 88 167 97 215 122 195 183 106 91 136 127 105 75
163 153 127 126 122 112 171 228 199 119 34 278 132 120 86 142 159 183 138 165 159 17 67 37 132 133 22 3 14 74 72 69 35 83 83 57 314 190 178 114 105 94 72 45 29
141 136 142 127 121 127 195 246 188 122 34 147 149 99 76 89 105 116 99 99 118 138 113 71 120 71 305 344 357 13 262 173 141 168 131 166 267 345 318 313 43 134 98 76 47